Terug naar catalogus

STARLINK-3520

ActiefCommunicatieVLEO
NORAD 51741·PAYLOAD·🇺🇸 United States

Gelanceerd Feb 21, 2022 vanaf Cape Canaveral Space Force Station

Loading…

Volgende Passages (komende 24 uur)

TLE

VersSource: CelesTrak SupGP

Epoch: Sep 14, 2026, 20:48 UTC

1 51741C 22016AD  26257.86715278 -.00017857  00000+0 -57421-3 0  2573
2 51741  53.1573 177.0558 0001319  99.8785 282.0381 15.31711610    18

Volg STARLINK-3520 in realtime met AllMySat

Download on the App Store